This is the latest recevied weather packets stored in our database for station/object kj4yre. If no packets are shown the sender has not sent any weather packets the latest 10 day(s).
| Time | Temp. | Humidity | Pressure | Rain* | Wind** | Luminosity | Snow |
|---|---|---|---|---|---|---|---|
| 1777664536 | 20° C | 37% | 1014 hPa | 0 mm | - | - | - |
| 1777663936 | 19.44° C | 36% | 1014.4 hPa | 0 mm | - | - | - |
| 1777663037 | 19.44° C | 37% | 1014.5 hPa | 0 mm | - | - | - |
| 1777662136 | 19.44° C | 42% | 1014.8 hPa | 0 mm | - | - | - |
| 1777661835 | 19.44° C | 42% | 1014.7 hPa | 0 mm | - | - | - |
| 1777661536 | 18.89° C | 43% | 1014.8 hPa | 0 mm | - | - | - |
| 1777659736 | 21.67° C | 41% | 1015.2 hPa | 0 mm | - | - | - |
| 1777659437 | 20.56° C | 42% | 1015.3 hPa | 0 mm | - | - | - |
| 1777659138 | 20° C | 40% | 1015.1 hPa | 0 mm | - | - | - |
| 1777658235 | 20.56° C | 40% | 1015.2 hPa | 0 mm | - | - | - |
| 1777657936 | 20° C | 40% | 1015.3 hPa | 0 mm | - | - | - |
| 1777657635 | 19.44° C | 39% | 1015.3 hPa | 0 mm | - | - | - |
| 1777655535 | 17.78° C | 41% | 1015.7 hPa | 0 mm | - | - | - |
| 1777655236 | 18.33° C | 44% | 1015.7 hPa | 0 mm | - | - | - |
| 1777653735 | 17.78° C | 38% | 1016 hPa | 0 mm | - | - | - |
| 1777652834 | 18.33° C | 41% | 1016.3 hPa | 0 mm | - | - | - |
| 1777652537 | 19.44° C | 38% | 1016.2 hPa | 0 mm | - | - | - |
| 1777651036 | 17.78° C | 41% | 1016.5 hPa | 0 mm | - | - | - |
| 1777650737 | 18.33° C | 43% | 1016.7 hPa | 0 mm | - | - | - |
| 1777649537 | 17.78° C | 46% | 1017 hPa | 0 mm | - | - | - |
| 1777648937 | 17.78° C | 48% | 1017 hPa | 0 mm | - | - | - |
| 1777648636 | 17.78° C | 49% | 1017.1 hPa | 0 mm | - | - | - |
| 1777648038 | 16.67° C | 48% | 1017.2 hPa | 0 mm | - | - | - |
| 1777647737 | 17.22° C | 47% | 1017.3 hPa | 0 mm | - | - | - |
| 1777646836 | 16.11° C | 50% | 1017.2 hPa | 0 mm | - | - | - |
* Rain latest hour (hover to see other rain measurements)
** Current wind speed in m/s (hover to see current wind gust speed)